Istanbul, Turkey

12:41 AM +03 on February 25, 2017 (GMT +0300)
Ataturk

Weather History for LTBA - December, 2011

Change the Weather History Date:

Friday, December 2, 2011

  Actual Average Record
Temperature  
Mean Temperature 44 °F -  
Max Temperature 54 °F 49 °F 69 °F (2010)
Min Temperature 35 °F 41 °F 32 °F (2016)
Degree Days  
Heating Degree Days 20    
Moisture  
Dew Point 39 °F    
Average Humidity 75    
Maximum Humidity 100    
Minimum Humidity 38    
Precipitation  
Precipitation 0.00 in - - ()
Sea Level Pressure  
Sea Level Pressure 30.30 in    
Wind  
Wind Speed 5 mph ()    
Max Wind Speed 8 mph    
Max Gust Speed -    
Visibility 3.2 miles    
Events      
Averages and records for this station are not official NWS values.
T = Trace of Precipitation, MM = Missing Value Source: Averaged Metar Reports

Daily Weather History Graph

Daily Weather History Graph

Search for Another Location

Airport or City:

Trip Planner

Search our weather history database for the weather conditions in past years. The results will help you decide how hot, cold, wet, or windy it might be!

Date:

Astronomy

Dec. 02, 2011 Rise Set
Actual Time 7:10 AM EET 4:37 PM EET
Civil Twilight 6:39 AM EET 5:07 PM EET
Nautical Twilight 6:05 AM EET 5:41 PM EET
Astronomical Twilight 5:32 AM EET 6:14 PM EET
Moon 12:10 PM EET (12/2) No Moon Set
Length of Visible Light 10h 27m
Length of Day
9h 26m
Waxing Crescent, 50% of the Moon is Illuminated
Dec 2
Waxing Crescent
Dec 10
Full
Dec 18
Last Quarter
Dec 24
New
Jan 1
First Quarter

Hourly Weather History & Observations

Time (EET) Temp. Windchill Dew Point Humidity Pressure Visibility Wind Dir Wind Speed Gust Speed Precip Events Conditions
12:20 AM 42.8 °F 38.6 °F 41.0 °F 93% 30.33 in 1.2 mi NNW 6.9 mph - N/A   Mist
12:50 AM 41.0 °F 35.8 °F 39.2 °F 93% 30.33 in 1.4 mi North 8.1 mph - N/A   Mist
1:20 AM 39.2 °F 35.0 °F 37.4 °F 93% 30.33 in 1.4 mi North 5.8 mph - N/A   Mist
1:50 AM 41.0 °F 37.1 °F 39.2 °F 93% 30.33 in 1.6 mi North 5.8 mph - N/A   Mist
2:00 AM 40 °F - 40 °F 100% 30.35 in 2 mi North 5.8 mph - -   Mist
2:20 AM 37.4 °F 33.8 °F 35.6 °F 93% 30.33 in 1.7 mi North 4.6 mph - N/A   Mist
2:50 AM 37.4 °F 34.9 °F 37.4 °F 100% 30.33 in 2.5 mi North 3.5 mph - N/A   Mist
3:20 AM 37.4 °F 32.8 °F 35.6 °F 93% 30.33 in - North 5.8 mph - N/A   Mist
3:50 AM 35.6 °F 29.9 °F 35.6 °F 100% 30.33 in 2.5 mi North 6.9 mph - N/A   Mist
4:20 AM 41.0 °F 39.0 °F 39.2 °F 93% 30.33 in 2.5 mi North 3.5 mph - N/A   Mist
4:50 AM 41.0 °F 39.0 °F 39.2 °F 93% 30.33 in 2.5 mi North 3.5 mph - N/A   Mist
5:20 AM 42.8 °F 41.1 °F 41.0 °F 93% 30.33 in 2.5 mi North 3.5 mph - N/A   Scattered Clouds
6:20 AM 41.0 °F - 37.4 °F 87% 30.33 in 2.5 mi Variable 2.3 mph - N/A   Scattered Clouds
6:50 AM 41.0 °F - 37.4 °F 87% 30.33 in 2.5 mi Calm Calm - N/A   Scattered Clouds
7:20 AM 46.4 °F 44.3 °F 41.0 °F 81% 30.33 in - ESE 4.6 mph - N/A   Scattered Clouds
7:50 AM 46.4 °F 45.2 °F 41.0 °F 81% 30.33 in - Variable 3.5 mph - N/A   Scattered Clouds
8:00 AM 47 °F - 42 °F 78% 30.36 in 2 mi SE 3.5 mph - -   Mist
8:20 AM 48.2 °F - 42.8 °F 82% 30.33 in - SE 5.8 mph - N/A   Scattered Clouds
8:50 AM 50.0 °F - 42.8 °F 76% 30.33 in - ESE 5.8 mph - N/A   Scattered Clouds
9:20 AM 48.2 °F - 42.8 °F 82% 30.33 in - Variable 4.6 mph - N/A   Scattered Clouds
9:50 AM 48.2 °F - 42.8 °F 82% 30.36 in - Variable 4.6 mph - N/A   Scattered Clouds
10:20 AM 48.2 °F - 41.0 °F 76% 30.33 in - SE 3.5 mph - N/A   Partly Cloudy
10:50 AM 48.2 °F - 39.2 °F 71% 30.33 in - SE 4.6 mph - N/A   Partly Cloudy
11:20 AM 50.0 °F - 39.2 °F 66% 30.33 in 3.7 mi SE 4.6 mph - N/A   Partly Cloudy
11:50 AM 51.8 °F - 35.6 °F 54% 30.33 in 3.7 mi South 3.5 mph - N/A   Partly Cloudy
12:20 PM 51.8 °F - 37.4 °F 58% 30.33 in 3.7 mi SE 4.6 mph - N/A   Partly Cloudy
12:50 PM 50.0 °F - 37.4 °F 62% 30.30 in 3.7 mi Variable 2.3 mph - N/A   Partly Cloudy
1:20 PM 51.8 °F - 35.6 °F 54% 30.30 in 4.3 mi East 4.6 mph - N/A   Partly Cloudy
1:50 PM 53.6 °F - 35.6 °F 51% 30.30 in 4.3 mi East 6.9 mph - N/A   Partly Cloudy
2:00 PM 53 °F - 35 °F 38% 30.31 in 4 mi East 6.9 mph - -   Mist
2:20 PM 51.8 °F - 35.6 °F 54% 30.27 in 6.2 mi East 5.8 mph - N/A   Partly Cloudy
2:50 PM 53.6 °F - 37.4 °F 54% 30.27 in 4.3 mi East 5.8 mph - N/A   Unknown
3:20 PM 53.6 °F - 35.6 °F 51% 30.27 in 4.3 mi SE 6.9 mph - N/A   Unknown
3:50 PM 51.8 °F - 37.4 °F 58% 30.27 in 4.3 mi SE 4.6 mph - N/A   Unknown
4:20 PM 51.8 °F - 35.6 °F 54% 30.27 in 4.3 mi Variable 2.3 mph - N/A   Unknown
4:50 PM 48.2 °F - 39.2 °F 71% 30.27 in 3.7 mi WSW 4.6 mph - N/A   Unknown
5:20 PM 48.2 °F - 39.2 °F 71% 30.27 in 3.7 mi WSW 3.5 mph - N/A   Unknown
5:50 PM 46.4 °F - 37.4 °F 71% 30.27 in 3.7 mi Variable 2.3 mph - N/A   Unknown
6:20 PM 48.2 °F - 39.2 °F 71% 30.27 in 3.7 mi NNE 3.5 mph - N/A   Unknown
6:50 PM 48.2 °F - 39.2 °F 71% 30.27 in 3.7 mi Variable 2.3 mph - N/A   Unknown
7:20 PM 48.2 °F - 39.2 °F 71% 30.27 in 3.7 mi Variable 5.8 mph - N/A   Unknown
7:50 PM 50.0 °F - 39.2 °F 66% 30.27 in 3.7 mi Variable 5.8 mph - N/A   Unknown
8:00 PM 50 °F - 40 °F 58% 30.28 in 4 mi East 5.8 mph - -   Haze
8:20 PM 48.2 °F - 37.4 °F 66% 30.27 in 3.7 mi East 5.8 mph - N/A   Unknown
8:50 PM 46.4 °F 45.2 °F 39.2 °F 76% 30.27 in 3.1 mi East 3.5 mph - N/A   Mist
9:20 PM 48.2 °F - 39.2 °F 71% 30.24 in 3.1 mi East 3.5 mph - N/A   Mist
9:50 PM 46.4 °F 44.3 °F 41.0 °F 81% 30.24 in - ENE 4.6 mph - N/A   Mist
10:20 PM 48.2 °F - 39.2 °F 71% 30.24 in - ESE 4.6 mph - N/A   Mist
10:50 PM 48.2 °F - 39.2 °F 71% 30.24 in - SE 5.8 mph - N/A   Mist
11:20 PM 46.4 °F 44.3 °F 39.2 °F 76% 30.24 in 2.8 mi SE 4.6 mph - N/A   Mist
11:50 PM 48.2 °F - 39.2 °F 71% 30.24 in - SE 5.8 mph - N/A   Mist